Simultaneous Nadir Overpasses (SNOs) Predictions

Prediction of SNOs between METOP-A and TERRA Satellite Orbit:

Table of predicted SNOs for the next 14.0 days since TLE Epoch: 4/6/2012
Index Date (METOP-A) Time (METOP-A) METOP-A Lat,Lon Date (TERRA) Time (TERRA) TERRA Lat,Lon Distance(km) Time Diff (sec)
1 04/08/2012 12:44:04 81.30, 35.87 04/08/2012 12:45:04 81.30, 35.88 0.64 60
2 04/08/2012 13:34:44 -81.30,-156.57 04/08/2012 13:34:31 -81.30,-156.54 0.52 13
3 04/11/2012 08:18:25 81.29, 102.22 04/11/2012 08:19:32 81.30, 102.30 1.72 67
4 04/11/2012 09:09:05 -81.30, -90.22 04/11/2012 09:08:59 -81.30, -90.05 2.85 6
5 04/14/2012 04:43:26 -81.30, -23.96 04/14/2012 04:43:35 -81.29, -23.97 0.84 9
6 04/14/2012 05:34:06 81.30, 143.73 04/14/2012 05:33:01 81.30, 143.84 1.80 65
7 04/17/2012 00:17:45
